Location: Corcelles
(46.1547°N, 4.7234°E)
Time: 08:46:35
(UTC+00:00)

Cosmos 2278 - Pass Details

Date: 14 July 2020
Orbit: 838 x 854 km, 71.1° (Epoch: 14 August)

Event Time Altitude Azimuth Distance (km) Brightness Sun altitude
Rises 01:59:50 0° 334° (NNW) 3,433 7.3 -15.8°
Reaches altitude 10° 02:02:18 10° 335° (NNW) 2,494 6.6 -15.6°
Maximum altitude 02:08:03 80° 64° (ENE) 873 3.8 -15.1°
Drops below altitude 10° 02:13:45 10° 151° (SSE) 2,477 5.9 -14.5°
Sets 02:16:12 0° 152° (SSE) 3,408 6.6 -14.3°
